Location: Byhalia Creek
(34.8270°N, 89.8040°W)
Time: 20:21:58
(UTC+00:00)

Cosmos 2360 Rocket - Pass Details

Date: 22 April 2026
Orbit: 831 x 845 km, 71.0° (Epoch: 21 May)

Event Time Altitude Azimuth Distance (km) Brightness Sun altitude
Rises 07:35:56 0° 354° (N) 3,408 6.0 -37.5°
Reaches altitude 10° 07:39:06 10° 11° (N) 2,470 5.3 -37.2°
Maximum altitude 07:43:09 20° 57° (ENE) 1,868 4.5 -36.7°
Drops below altitude 10° 07:47:12 10° 103° (ESE) 2,461 4.8 -36.3°
Enters shadow 07:47:42 - 107° (ESE) 2,596 4.9 -36.2°
